Location: Lecco
(45.8566°N, 9.3977°E)
Time: 07:48:59
(UTC+01:00)

Envisat - Pass Details

Date: 23 October 2019
Orbit: 764 x 766 km, 98.1° (Epoch: 16 November)

Event Time Altitude Azimuth Distance (km) Brightness Sun altitude
Rises 19:17:40 0° 164° (SSE) 3,219 6.1 -10.1°
Reaches altitude 10° 19:19:58 10° 164° (SSE) 2,297 5.4 -10.5°
Maximum altitude 19:25:02 88° 75° (ENE) 773 3.0 -11.4°
Drops below altitude 10° 19:30:09 10° 347° (NNW) 2,313 5.6 -12.3°
Sets 19:32:28 0° 347° (NNW) 3,244 6.4 -12.7°
